Hourly Weather Ruda

Today, 23 July, Friday

Time Temperature Precipitation Wind Pressure Humidity
00:00 +14°C° 0 mm 2 mps 748 mmHg 66%
01:00 +14°C° 0 mm 2 mps 748 mmHg 68%
02:00 +14°C° 0 mm 2 mps 748 mmHg 69%
03:00 +14°C° 0 mm 2 mps 748 mmHg 71%
04:00 +14°C° 0 mm 2 mps 748 mmHg 73%
05:00 +14°C° 0 mm 2 mps 748 mmHg 74%
06:00 +16°C° 0 mm 2 mps 748 mmHg 68%
07:00 +18°C° 0 mm 2 mps 748 mmHg 61%
08:00 +20°C° 0 mm 3 mps 748 mmHg 57%
09:00 +21°C° 0 mm 3 mps 748 mmHg 53%
10:00 +23°C° 0 mm 4 mps 748 mmHg 49%
11:00 +25°C° 0 mm 4 mps 748 mmHg 46%
12:00 +25°C° 0 mm 4 mps 747 mmHg 44%
13:00 +26°C° 0 mm 4 mps 747 mmHg 43%
14:00 +27°C° 0 mm 4 mps 747 mmHg 42%
15:00 +26°C° 0 mm 3 mps 747 mmHg 47%
16:00 +25°C° 0 mm 3 mps 747 mmHg 52%
17:00 +24°C° 0 mm 3 mps 747 mmHg 56%
18:00 +22°C° 0 mm 3 mps 747 mmHg 58%
19:00 +22°C° 0 mm 3 mps 747 mmHg 59%
20:00 +21°C° 0 mm 3 mps 747 mmHg 60%
21:00 +20°C° 0 mm 3 mps 747 mmHg 62%
22:00 +20°C° 0 mm 2 mps 747 mmHg 63%
23:00 +19°C° 0 mm 2 mps 748 mmHg 64%

Tomorrow, 24 July, Saturday

Time Temperature Precipitation Wind Pressure Humidity
00:00 +19°C° 0 mm 2 mps 748 mmHg 66%
01:00 +18°C° 0 mm 2 mps 748 mmHg 68%
02:00 +18°C° 0 mm 3 mps 748 mmHg 69%
03:00 +18°C° 0 mm 2 mps 748 mmHg 71%
04:00 +18°C° 0 mm 2 mps 748 mmHg 73%
05:00 +18°C° 0 mm 2 mps 748 mmHg 75%
06:00 +19°C° 0 mm 2 mps 748 mmHg 71%
07:00 +20°C° 0 mm 3 mps 748 mmHg 68%
08:00 +22°C° 0 mm 3 mps 748 mmHg 64%
09:00 +24°C° 0.2 mm 3 mps 748 mmHg 60%
10:00 +25°C° 0.2 mm 3 mps 748 mmHg 57%
11:00 +26°C° 0.2 mm 4 mps 749 mmHg 53%
12:00 +26°C° 0.8 mm 4 mps 749 mmHg 56%
13:00 +25°C° 0.8 mm 3 mps 749 mmHg 60%
14:00 +25°C° 0.8 mm 3 mps 749 mmHg 64%
15:00 +25°C° 0.3 mm 3 mps 749 mmHg 63%
16:00 +25°C° 0.3 mm 2 mps 749 mmHg 63%
17:00 +25°C° 0.3 mm 2 mps 749 mmHg 62%
18:00 +23°C° 0.3 mm 1 mps 749 mmHg 68%
19:00 +22°C° 0.3 mm 1 mps 750 mmHg 74%
20:00 +20°C° 0.3 mm 1 mps 750 mmHg 80%
21:00 +20°C° 0.2 mm 1 mps 750 mmHg 81%
22:00 +20°C° 0.2 mm 1 mps 750 mmHg 82%
23:00 +20°C° 0.2 mm 1 mps 750 mmHg 83%

Day after tomorrow, 25 July, Sunday

Time Temperature Precipitation Wind Pressure Humidity
00:00 +19°C° 0 mm 1 mps 751 mmHg 83%
01:00 +17°C° 0 mm 0 mps 751 mmHg 84%
02:00 +17°C° 0 mm 0 mps 751 mmHg 84%
03:00 +16°C° 0.1 mm 0 mps 751 mmHg 85%
04:00 +16°C° 0.1 mm 0 mps 751 mmHg 86%
05:00 +16°C° 0.1 mm 0 mps 751 mmHg 86%
06:00 +17°C° 0.1 mm 0 mps 752 mmHg 84%
07:00 +20°C° 0.1 mm 1 mps 752 mmHg 81%
08:00 +22°C° 0.1 mm 1 mps 752 mmHg 78%
09:00 +22°C° 0.1 mm 1 mps 752 mmHg 75%
10:00 +23°C° 0.1 mm 1 mps 752 mmHg 72%
11:00 +24°C° 0.1 mm 1 mps 752 mmHg 68%
12:00 +25°C° 0.3 mm 1 mps 752 mmHg 64%
13:00 +26°C° 0.3 mm 1 mps 752 mmHg 59%
14:00 +27°C° 0.3 mm 2 mps 752 mmHg 54%
15:00 +26°C° 0.1 mm 2 mps 752 mmHg 56%
16:00 +26°C° 0.1 mm 2 mps 752 mmHg 59%
17:00 +25°C° 0.1 mm 2 mps 752 mmHg 61%
18:00 +24°C° 0.2 mm 2 mps 753 mmHg 66%
19:00 +22°C° 0.2 mm 1 mps 753 mmHg 71%
20:00 +21°C° 0.2 mm 1 mps 753 mmHg 76%
21:00 +20°C° 0.1 mm 1 mps 753 mmHg 78%
22:00 +20°C° 0.1 mm 1 mps 753 mmHg 79%
23:00 +18°C° 0.1 mm 2 mps 753 mmHg 80%

26 July, Monday

Time Temperature Precipitation Wind Pressure Humidity
00:00 +18°C° 0.1 mm 2 mps 754 mmHg 82%
01:00 +18°C° 0.1 mm 2 mps 754 mmHg 85%
02:00 +17°C° 0.1 mm 2 mps 754 mmHg 87%
03:00 +17°C° 0.1 mm 2 mps 754 mmHg 87%
04:00 +17°C° 0.1 mm 2 mps 754 mmHg 88%
05:00 +17°C° 0.1 mm 2 mps 754 mmHg 89%
06:00 +19°C° 0 mm 2 mps 754 mmHg 83%
07:00 +20°C° 0 mm 2 mps 754 mmHg 77%
08:00 +22°C° 0 mm 3 mps 754 mmHg 71%
09:00 +25°C° 0 mm 3 mps 755 mmHg 65%
10:00 +26°C° 0 mm 3 mps 755 mmHg 58%
11:00 +28°C° 0 mm 3 mps 755 mmHg 51%
12:00 +28°C° 0 mm 3 mps 754 mmHg 50%
13:00 +29°C° 0 mm 3 mps 754 mmHg 48%
14:00 +29°C° 0 mm 2 mps 754 mmHg 46%
15:00 +28°C° 0 mm 2 mps 754 mmHg 50%
16:00 +27°C° 0 mm 2 mps 754 mmHg 54%
17:00 +26°C° 0 mm 2 mps 754 mmHg 58%
18:00 +25°C° 0 mm 2 mps 754 mmHg 59%
19:00 +24°C° 0 mm 2 mps 754 mmHg 61%
20:00 +24°C° 0 mm 2 mps 754 mmHg 62%
21:00 +22°C° 0 mm 3 mps 754 mmHg 64%
22:00 +21°C° 0 mm 3 mps 754 mmHg 67%
23:00 +20°C° 0 mm 3 mps 755 mmHg 69%

27 July, Tuesday

Time Temperature Precipitation Wind Pressure Humidity
00:00 +19°C° 0 mm 3 mps 754 mmHg 68%
01:00 +19°C° 0 mm 3 mps 754 mmHg 68%
02:00 +18°C° 0 mm 3 mps 754 mmHg 67%
03:00 +18°C° 0 mm 3 mps 754 mmHg 67%
04:00 +17°C° 0 mm 3 mps 755 mmHg 67%
05:00 +17°C° 0 mm 3 mps 755 mmHg 67%
06:00 +19°C° 0 mm 3 mps 755 mmHg 62%
07:00 +21°C° 0 mm 4 mps 755 mmHg 57%
08:00 +23°C° 0 mm 4 mps 755 mmHg 52%
09:00 +26°C° 0 mm 4 mps 755 mmHg 48%
10:00 +27°C° 0 mm 4 mps 755 mmHg 45%
11:00 +29°C° 0 mm 4 mps 755 mmHg 41%
12:00 +29°C° 0 mm 4 mps 754 mmHg 40%
13:00 +30°C° 0 mm 4 mps 754 mmHg 38%
14:00 +32°C° 0 mm 4 mps 754 mmHg 37%
15:00 +30°C° 0 mm 4 mps 753 mmHg 39%
16:00 +30°C° 0 mm 3 mps 753 mmHg 41%
17:00 +30°C° 0 mm 3 mps 753 mmHg 44%
18:00 +28°C° 0 mm 3 mps 753 mmHg 47%
19:00 +27°C° 0 mm 4 mps 753 mmHg 50%
20:00 +25°C° 0 mm 4 mps 752 mmHg 53%
21:00 +25°C° 0 mm 4 mps 752 mmHg 53%
22:00 +24°C° 0 mm 3 mps 752 mmHg 53%
23:00 +22°C° 0 mm 3 mps 752 mmHg 53%

28 July, Wednesday

Time Temperature Precipitation Wind Pressure Humidity
00:00 +22°C° 0 mm 3 mps 752 mmHg 53%
01:00 +22°C° 0 mm 3 mps 752 mmHg 54%
02:00 +21°C° 0 mm 3 mps 752 mmHg 54%
03:00 +21°C° 0 mm 3 mps 752 mmHg 55%
04:00 +21°C° 0 mm 3 mps 751 mmHg 56%
05:00 +21°C° 0 mm 3 mps 751 mmHg 57%
06:00 +21°C° 0 mm 4 mps 751 mmHg 57%
07:00 +22°C° 0 mm 4 mps 751 mmHg 57%
08:00 +23°C° 0 mm 4 mps 751 mmHg 56%
09:00 +26°C° 0 mm 5 mps 750 mmHg 52%
10:00 +28°C° 0 mm 6 mps 750 mmHg 48%
11:00 +30°C° 0 mm 7 mps 749 mmHg 44%
12:00 +29°C° 0 mm 6 mps 749 mmHg 47%
13:00 +29°C° 0 mm 6 mps 749 mmHg 51%
14:00 +29°C° 0 mm 5 mps 748 mmHg 54%
15:00 +29°C° 0 mm 5 mps 748 mmHg 53%
16:00 +30°C° 0 mm 5 mps 748 mmHg 52%
17:00 +30°C° 0 mm 5 mps 747 mmHg 51%
18:00 +29°C° 0.1 mm 5 mps 747 mmHg 56%
19:00 +27°C° 0.1 mm 5 mps 747 mmHg 61%
20:00 +26°C° 0.1 mm 5 mps 746 mmHg 65%
21:00 +23°C° 0.8 mm 4 mps 746 mmHg 74%
22:00 +22°C° 0.8 mm 3 mps 746 mmHg 83%
23:00 +20°C° 0.8 mm 2 mps 746 mmHg 92%
Show more

We Need Your Consent

Meteoprog and our Service Providers may store and access personal data such as cookies, device identifiers or other similar technologies on your device and process such data to personalise content and ads, as well as provide social media features and to analyse the traffic.

  • Store and/or access information on your device

    Cookies, device identifiers or other information can be stored or accessed on your device for the purposes indicated above.

  • Personalised ads and content, ad and content measurement, audience insights, and products development

    Ads and content can be personalised based on a profile. More data can be added to better personalise ads and content. Ad and content performance can be measured. Insights about the audience who saw the ads and content can be derived. Such data can be used to develop or improve user’s experience, systems and software.

By clicking ‘I Agree’ you will allow the use of indicated cookies, device identifiers, web beacons or other similar technologies. Your settings can be changed in the browser on your device.

For certain purposes, legitimate interests may be relied on, rather than consent. You can read more about this in our Privacy and Cookie Policy.